"Pseudo-MPEC" for P21U2ZQ

Created 2024 May 20 15:22:07 UT using Find_Orb

Click here for an explanation of pseudo-MPECs

 
 Astrometry: 
     P21U2ZQ* C2024 05 021ueUPcG#^0M+f5;WdAstrometryqGXq'o+o(/..@)sOY7Q6O;nF^F52
     P21U2ZQ  C2024 05 02);oredacted;H2*wOimFLTZw8-clickKD1btLZBLhere%ggM)S^'F52
     P21U2ZQ  C2024 05 02]MN)y*73[OAbUesq9Q[LforIa:6hn?v,YYN3explanation3SFn]F52
     P21U2ZQ KC2024 05 07.22549010 10 11.850+38 06 07.50   ~576b 22.42GVNEOCPV06
     P21U2ZQ KC2024 05 07.23344610 10 11.930+38 06 04.50   ~576b 22.31GVNEOCPV06
     P21U2ZQ KC2024 05 07.24140310 10 12.050+38 06 01.30   ~576b 22.59GVNEOCPV06
     P21U2ZQ KC2024 05 07.24936610 10 12.130+38 05 58.70   ~576b       VNEOCPV06
     P21U2ZQ KC2024 05 19.22043 10 13 57.97 +36 50 21.4    ~5J6b       VNEOCP291
     P21U2ZQ KC2024 05 19.23248 10 13 58.24 +36 50 17.0    ~5J6b       VNEOCP291
     P21U2ZQ KC2024 05 19.24459 10 13 58.54 +36 50 12.3    ~5J6b       VNEOCP291

Station data:
(291) LPL/Spacewatch II  (N31.961669 W111.599905)  US/Arizona.  Observers J.
   V. Scotti, R. S. McMillan. 1.8-m f/2.7 reflector + CCD.
(F52) Pan-STARRS 2, Haleakala  (N20.707382 W156.255910)  US/Hawaii.
   Observers J. Bulger, T. Dukes, T. Lowe, A. Schultz, M. Willman. Measurers
   K. Chambers, S. Chastel, T. de Boer, L. Denneau, J. Fairlamb, H.
   Flewelling, M. Huber, C.-C. Lin, E. Magnier, Y. Ramanjooloo, R. Wainscoat,
   R. Weryk. 1.8-m Ritchey-Chrétien + CCD.
(V06) Catalina Sky Survey-Kuiper  (N32.416871 W110.732550)  US/Arizona.
   Observers T. A. Pruyne, B. M. Africano, E. J. Christensen, G. A. Farneth,
   D. C. Fuls, A. R. Gibbs, A. D. Grauer, H. Gröller, J. A. Johnson, R. A.
   Kowalski, S. M. Larson, G. J. Leonard, D. Rankin, R. L. Seaman, F. C.
   Shelly, K. W. Wierzchoś. 1.55-m reflector + CCD.

Orbital elements:  P21U2ZQ
   Perihelion 2022 Sep 6.30988 +/- 39.7 TT =  7:26:14 (JD 2459828.80988)
Epoch 2024 May 19.0 TT = JDT 2460449.5   Ju: 0.3072              AutoNEOCP
M  52.24145347 +/- 3.7              (J2000 ecliptic)
n   0.08416672 +/- 0.000761         Peri.   23.27778 +/- 4.8
a   5.15674632 +/- 0.0311           Node    68.61886 +/- 0.16
e   0.1114478 +/- 0.005             Incl.   24.14260 +/- 0.0032
P  11.71                   H 15.17  G  0.15   U  8.0
q 4.58203784 +/- 0.0489    Q 5.73145480 +/- 0.0255
From 10 observations 2024 May 2-19; mean residual 0".14
Residuals in arcseconds: 
240502 F52  .10-  .09-    240507 V06  .08-  .04+    240519 291  .11-  .09+    
240502 F52  .00   .09+    240507 V06  .08+  .24-    240519 291  .13+  .21+    
240502 F52  .10+  .00     240507 V06  .24-  .08+    
240507 V06  .23+  .12+    240519 291  .02-  .31-    

Ephemerides (geocentric):
Date (UTC) HH   RA             Dec           delta  r     elong  mag " sig PA
---- --------  ------------   ------------  ------ ------ -----  --- --------
2024 05 20 15  10 14 31.832   +36 41 07.38  4.8723 4.8503  82.8 22.8 .183  54
2024 05 20 16  10 14 32.855   +36 40 50.87  4.8729 4.8503  82.8 22.8 .186  54
2024 05 20 17  10 14 33.880   +36 40 34.35  4.8735 4.8504  82.7 22.8 .189  54
2024 05 20 18  10 14 34.906   +36 40 17.84  4.8741 4.8504  82.7 22.8 .193  54
2024 05 20 19  10 14 35.933   +36 40 01.31  4.8747 4.8504  82.7 22.8 .196  54
2024 05 20 20  10 14 36.961   +36 39 44.79  4.8753 4.8505  82.6 22.8 .199  54
2024 05 20 21  10 14 37.991   +36 39 28.26  4.8759 4.8505  82.6 22.8 .203  53
2024 05 20 22  10 14 39.022   +36 39 11.73  4.8765 4.8505  82.6 22.8 .206  53
2024 05 20 23  10 14 40.054   +36 38 55.20  4.8771 4.8506  82.5 22.8 .209  53
2024 05 21 00  10 14 41.087   +36 38 38.66  4.8777 4.8506  82.5 22.8 .213  53
2024 05 21 01  10 14 42.122   +36 38 22.12  4.8783 4.8506  82.5 22.8 .216  53
2024 05 21 02  10 14 43.157   +36 38 05.57  4.8789 4.8507  82.4 22.8 .219  53
2024 05 21 03  10 14 44.194   +36 37 49.02  4.8795 4.8507  82.4 22.8 .223  53
2024 05 21 04  10 14 45.233   +36 37 32.47  4.8801 4.8507  82.4 22.8 .226  53
2024 05 21 05  10 14 46.272   +36 37 15.92  4.8807 4.8508  82.3 22.8 .229  53
2024 05 21 06  10 14 47.313   +36 36 59.36  4.8813 4.8508  82.3 22.8 .233  53
2024 05 21 07  10 14 48.355   +36 36 42.80  4.8819 4.8508  82.3 22.8 .236  53
2024 05 21 08  10 14 49.398   +36 36 26.23  4.8826 4.8508  82.2 22.8 .240  52
2024 05 21 09  10 14 50.443   +36 36 09.67  4.8832 4.8509  82.2 22.8 .243  52
2024 05 21 10  10 14 51.489   +36 35 53.09  4.8838 4.8509  82.2 22.8 .247  52
2024 05 21 11  10 14 52.536   +36 35 36.52  4.8844 4.8509  82.2 22.8 .250  52
2024 05 21 12  10 14 53.584   +36 35 19.94  4.8850 4.8510  82.1 22.8 .254  52
2024 05 21 13  10 14 54.633   +36 35 03.36  4.8856 4.8510  82.1 22.8 .257  52
2024 05 21 14  10 14 55.684   +36 34 46.77  4.8862 4.8510  82.1 22.8 .261  52
2024 05 21 15  10 14 56.736   +36 34 30.18  4.8868 4.8511  82.0 22.8 .264  52
2024 05 21 16  10 14 57.789   +36 34 13.59  4.8874 4.8511  82.0 22.8 .268  52
2024 05 21 17  10 14 58.844   +36 33 57.00  4.8880 4.8511  82.0 22.8 .271  52
2024 05 21 18  10 14 59.899   +36 33 40.40  4.8886 4.8512  81.9 22.8 .275  52
2024 05 21 19  10 15 00.956   +36 33 23.80  4.8892 4.8512  81.9 22.8 .278  52
2024 05 21 20  10 15 02.014   +36 33 07.19  4.8898 4.8512  81.9 22.8 .282  51
2024 05 21 21  10 15 03.073   +36 32 50.58  4.8904 4.8513  81.8 22.8 .285  51
2024 05 21 22  10 15 04.134   +36 32 33.97  4.8910 4.8513  81.8 22.8 .289  51
2024 05 21 23  10 15 05.196   +36 32 17.36  4.8916 4.8513  81.8 22.8 .292  51
2024 05 22 00  10 15 06.259   +36 32 00.74  4.8922 4.8514  81.7 22.8 .296  51
2024 05 22 01  10 15 07.323   +36 31 44.12  4.8928 4.8514  81.7 22.8 .300  51
2024 05 22 02  10 15 08.388   +36 31 27.49  4.8934 4.8514  81.7 22.8 .303  51
2024 05 22 03  10 15 09.455   +36 31 10.87  4.8940 4.8515  81.6 22.8 .307  51
2024 05 22 04  10 15 10.523   +36 30 54.23  4.8946 4.8515  81.6 22.8 .311  51
2024 05 22 05  10 15 11.592   +36 30 37.60  4.8952 4.8515  81.6 22.8 .314  51
2024 05 22 06  10 15 12.662   +36 30 20.96  4.8958 4.8515  81.6 22.8 .318  51
2024 05 22 07  10 15 13.734   +36 30 04.32  4.8964 4.8516  81.5 22.8 .322  51
2024 05 22 08  10 15 14.807   +36 29 47.68  4.8970 4.8516  81.5 22.8 .325  51
2024 05 22 09  10 15 15.881   +36 29 31.03  4.8976 4.8516  81.5 22.8 .329  51
2024 05 22 10  10 15 16.956   +36 29 14.38  4.8982 4.8517  81.4 22.8 .333  51
2024 05 22 11  10 15 18.033   +36 28 57.72  4.8988 4.8517  81.4 22.8 .336  50
2024 05 22 12  10 15 19.110   +36 28 41.07  4.8994 4.8517  81.4 22.8 .340  50
2024 05 22 13  10 15 20.189   +36 28 24.41  4.9000 4.8518  81.3 22.8 .344  50
2024 05 22 14  10 15 21.269   +36 28 07.74  4.9006 4.8518  81.3 22.8 .348  50